Погода в Новых Шимкусах

Россия / Чувашская Республика     55°09′24″N   47°45′58″E
темп.,
°C
ветер,
м/с
пор.,
м/с
влажн.,
%
обл.,
%
осадки,
мм/ч
давл.,
гПа
погр.,
м
26 июня, вс
вс2600:00+16сз33790 0.0 101434
03:00+13с49860 0.0 1016171
06:00+15с510770 0.0 1017354
09:00+17с69580 0.0 10181022
12:00+19с68490 0.0 10191527
15:00+20с68473 0.0 10181723
18:00+19с36635 0.0 1019375
21:00+14ссз12770 0.0 102011
27 июня, пн
пн2700:00+13зсз22760 0.0 102019
03:00+12зсз33780 0.0 102038
06:00+15з37755 0.0 1019202
09:00+20з61061100 0.0 1017567
12:00+25з811563 0.1 10151167
15:00+24зсз7107673 1.8 10141109
18:00+20сз33872 4.4 101446
21:00+17ссв49930 6.0 1015190
28 июня, вт
вт2800:00+12ссв48900 0.0 1017139
03:00+10ссв36915 0.0 101798
06:00+12ссв45860 0.0 1018281
09:00+15св45661 0.0 10191013
12:00+15с4761100 0.1 10201337
15:00+16с575177 0.1 10201893
18:00+15ссв47605 0.0 1021816
21:00+10с22715 0.0 102219
29 июня, ср
ср2900:00+9сз33745 0.0 102145
03:00+8ссз48765 0.0 1022133
06:00+11с487128 0.0 1022256
09:00+15с465254 0.0 1022914
12:00+18ссз564747 0.0 10211420
15:00+19ссз564531 0.0 10201978
18:00+18сз36620 0.0 1019281
21:00+13сз337663 0.0 101931
30 июня, чт
чт3000:00+11зсз347287 0.0 101855
03:00+11зсз4965100 0.0 1017155
06:00+12зсз4107295 0.0 1016299
09:00+16сз5106411 0.0 1015655
12:00+17сз7116464 0.0 1014855
15:00+17ссз596612 0.0 1013957
18:00+15ссз3977100 0.4 1013403
21:00+13св3681100 0.5 101399